[[{"header":{"parameterUnit":"m.s-1","parameterCategory":2,"la1":30.2992,"la2":30.254,"lo1":-89.0895,"lo2":-89.0443,"dy":0.0025,"dx":0.0025,"nx":19,"ny":19,"refTime":"2026-03-27T03:00:00:Z","depth":"0","parameterNumber":2,"parameterNumberName":"U-component_of_CURRENTS"},"data":[0,0,0,-0.1724,-0.1725,-0.1749,-0.1749,-0.1785,-0.1785,0,0,0,0,0,0,0,0,0,0,0,-0.1709,-0.1709,-0.1724,-0.1725,-0.1749,-0.1749,-0.1784,-0.1785,0,0,0,0,0,0,0,0,0,0,0,-0.1708,-0.1709,-0.1709,-0.1725,-0.1749,-0.1749,-0.1784,-0.1764,0,0,0,0,0,0,0,0,0,0,-0.1739,-0.1721,-0.1709,-0.1709,-0.1725,-0.1749,-0.1749,-0.1763,-0.1765,-0.1776,0,-0.1777,0,-0.1787,-0.1788,-0.1788,0,0,0,-0.1721,-0.1719,-0.1732,-0.1709,-0.1725,-0.1749,-0.1737,-0.1764,-0.1767,-0.1779,-0.1777,-0.1779,-0.1787,-0.1788,-0.1788,-0.1855,-0.1855,0,0,-0.172,-0.1708,-0.1731,-0.1734,-0.1729,-0.1737,-0.1738,-0.1766,-0.1763,-0.1778,-0.178,-0.1788,-0.1788,-0.1788,-0.1855,-0.1855,0,0,0,-0.1718,-0.1706,-0.1719,-0.1732,-0.1739,-0.1737,-0.1739,-0.1762,-0.1768,-0.178,-0.1788,-0.1788,-0.1789,-0.1854,-0.1855,-0.1877,0,0,0,-0.1717,-0.1706,-0.1718,-0.1711,-0.1739,-0.175,-0.1734,-0.1766,-0.1769,-0.1788,-0.1788,-0.1789,-0.1854,-0.1854,-0.1875,-0.1881,0,0,0,-0.1708,-0.1705,-0.1709,-0.171,-0.1724,-0.175,-0.1757,-0.1767,-0.1775,-0.1788,-0.1789,-0.1853,-0.1854,-0.1873,-0.1879,-0.1901,0,0,0,-0.1694,-0.1707,-0.1708,-0.173,-0.1724,-0.1768,-0.1757,-0.1783,-0.1797,-0.1789,-0.1854,-0.1855,-0.1873,-0.1878,-0.1899,-0.1838,-0.184,0,0,-0.1707,-0.1708,-0.1725,-0.1728,-0.1771,-0.1765,-0.1812,-0.1818,-0.1816,-0.1843,-0.1845,-0.1875,-0.1879,-0.19,-0.1896,-0.1896,0,0,0,-0.1729,-0.1736,-0.1751,-0.1774,-0.1804,-0.1831,-0.184,-0.1848,-0.1868,-0.1829,-0.189,-0.1892,-0.1904,-0.1865,-0.1865,-0.1841,-0.1859,-0.1859,-0.1859,-0.1715,-0.1745,-0.1774,-0.1811,-0.1841,-0.1878,-0.1898,-0.1911,-0.1904,-0.1918,-0.192,-0.1966,-0.1925,-0.1924,-0.1901,-0.1935,-0.1935,-0.1935,-0.1935,-0.1726,-0.1737,-0.1783,-0.1818,-0.1861,-0.1897,-0.195,-0.1952,-0.198,-0.1962,-0.1973,-0.1903,-0.1926,-0.19,-0.1936,-0.1936,-0.1936,-0.1936,-0.1936,-0.17,-0.1709,-0.1738,-0.1791,-0.1844,-0.19,-0.195,-0.1985,-0.1997,-0.2011,-0.1966,-0.1965,-0.1932,-0.2016,-0.2016,-0.2017,-0.2017,-0.2017,-0.2017,-0.1647,-0.1683,-0.1696,-0.1763,-0.179,-0.1855,-0.1947,-0.1975,-0.1995,-0.1987,-0.1987,-0.1945,-0.1991,-0.1976,-0.2019,-0.2019,-0.2018,-0.2018,-0.2018,-0.1592,-0.1612,-0.1629,-0.1652,-0.1727,-0.1756,-0.1875,-0.1929,-0.1973,-0.1964,-0.1925,-0.1975,-0.1961,-0.196,-0.1944,-0.1977,-0.1977,-0.1977,-0.1977,-0.1536,-0.1557,-0.155,-0.1571,-0.1625,-0.1701,-0.172,-0.1795,-0.1854,-0.1851,-0.1897,-0.1859,-0.1861,-0.1841,-0.1842,-0.1824,-0.1825,-0.1825,-0.1825,-0.1484,-0.1497,-0.1464,-0.1505,-0.1563,-0.1614,-0.1596,-0.1667,-0.1767,-0.182,-0.188,-0.1886,-0.1832,-0.1838,-0.1805,-0.1809,-0.1779,0,0]},{"header":{"parameterUnit":"m.s-1","parameterCategory":2,"la1":30.2992,"la2":30.254,"lo1":-89.0895,"lo2":-89.0443,"dy":0.0025,"dx":0.0025,"nx":19,"ny":19,"refTime":"2026-03-27T03:00:00:Z","depth":"0","parameterNumber":3,"parameterNumberName":"V-component_of_CURRENTS"},"data":[0,0,0,-0.039,-0.039,-0.0352,-0.0352,-0.0285,-0.0284,0,0,0,0,0,0,0,0,0,0,0,-0.0402,-0.0402,-0.039,-0.039,-0.0352,-0.0352,-0.0285,-0.0284,0,0,0,0,0,0,0,0,0,0,0,-0.0403,-0.0402,-0.0402,-0.039,-0.0352,-0.0352,-0.0285,-0.0316,0,0,0,0,0,0,0,0,0,0,-0.0354,-0.0373,-0.0402,-0.0402,-0.0389,-0.0352,-0.0352,-0.0318,-0.0314,-0.0299,0,-0.0298,0,-0.0293,-0.028,-0.028,0,0,0,-0.0382,-0.0376,-0.0366,-0.0402,-0.0389,-0.0352,-0.0367,-0.0316,-0.0312,-0.0294,-0.0297,-0.0294,-0.0292,-0.028,-0.0279,-0.0235,-0.0235,0,0,-0.0384,-0.0393,-0.0369,-0.0363,-0.0385,-0.0368,-0.0366,-0.0314,-0.0311,-0.0297,-0.0293,-0.029,-0.0279,-0.0279,-0.0235,-0.0235,0,0,0,-0.0395,-0.0395,-0.0386,-0.0366,-0.0362,-0.0367,-0.0364,-0.0313,-0.0311,-0.0292,-0.029,-0.0279,-0.0278,-0.0235,-0.0235,-0.0291,0,0,0,-0.0396,-0.0402,-0.0387,-0.0392,-0.0364,-0.0341,-0.0366,-0.0314,-0.0308,-0.029,-0.0279,-0.0277,-0.0235,-0.0235,-0.029,-0.0316,0,0,0,-0.0403,-0.0402,-0.04,-0.0392,-0.038,-0.0341,-0.0335,-0.0313,-0.0307,-0.028,-0.0277,-0.0235,-0.0235,-0.0288,-0.0313,-0.0301,0,0,0,-0.0411,-0.0426,-0.04,-0.0417,-0.038,-0.0375,-0.0336,-0.0323,-0.0305,-0.0279,-0.0235,-0.0235,-0.0288,-0.0311,-0.03,-0.0284,-0.0288,0,0,-0.0438,-0.0429,-0.0441,-0.0417,-0.0431,-0.0379,-0.0379,-0.0336,-0.0295,-0.0249,-0.0248,-0.029,-0.0313,-0.0301,-0.0281,-0.0285,0,0,0,-0.0455,-0.0466,-0.0465,-0.0465,-0.0445,-0.0424,-0.0377,-0.0345,-0.0302,-0.0285,-0.0273,-0.0285,-0.0276,-0.0264,-0.0267,-0.0131,-0.0234,-0.0234,-0.0234,-0.0502,-0.0498,-0.0522,-0.0512,-0.05,-0.0451,-0.0424,-0.0368,-0.033,-0.0314,-0.0319,-0.0333,-0.032,-0.0322,-0.0183,-0.0303,-0.0304,-0.0304,-0.0304,-0.056,-0.0581,-0.0567,-0.0589,-0.0555,-0.0542,-0.0468,-0.043,-0.0372,-0.0345,-0.0333,-0.0309,-0.0329,-0.0179,-0.0307,-0.0307,-0.0306,-0.0306,-0.0306,-0.06,-0.0612,-0.062,-0.0646,-0.0644,-0.06,-0.0582,-0.0511,-0.0426,-0.0415,-0.0365,-0.0364,-0.024,-0.0401,-0.0401,-0.0401,-0.0402,-0.0402,-0.0402,-0.0639,-0.065,-0.0691,-0.0708,-0.0725,-0.072,-0.0645,-0.0595,-0.0488,-0.0418,-0.0417,-0.0222,-0.0361,-0.0367,-0.0403,-0.0403,-0.0402,-0.0402,-0.0402,-0.0695,-0.0697,-0.0764,-0.0794,-0.0834,-0.0851,-0.077,-0.0642,-0.0558,-0.0497,-0.0235,-0.0401,-0.0374,-0.0371,-0.0375,-0.0411,-0.0411,-0.0411,-0.0411,-0.0729,-0.0737,-0.0829,-0.089,-0.0934,-0.0915,-0.0872,-0.071,-0.04,-0.0231,-0.0162,-0.0124,-0.013,-0.0085,-0.0088,-0.0085,-0.0046,-0.0045,-0.0044,-0.0765,-0.0793,-0.0864,-0.0926,-0.0982,-0.0978,-0.0939,-0.0752,-0.0272,-0.0015,0.0025,0.001,0.008,0.006,0.0142,0.0127,0.0135,0,0]}],[{"header":{"parameterUnit":"m.s-1","parameterCategory":2,"la1":30.2992,"la2":30.254,"lo1":-89.0895,"lo2":-89.0443,"dy":0.0025,"dx":0.0025,"nx":19,"ny":19,"refTime":"2026-03-27T03:00:00:Z","depth":"2","parameterNumber":2,"parameterNumberName":"U-component_of_CURRENTS"},"data":[0,0,0,-0.1607,-0.1608,-0.1638,-0.1638,-0.1674,-0.1674,0,0,0,0,0,0,0,0,0,0,0,-0.1591,-0.1591,-0.1607,-0.1608,-0.1638,-0.1638,-0.1674,-0.1674,0,0,0,0,0,0,0,0,0,0,0,-0.1591,-0.1591,-0.1591,-0.1608,-0.1638,-0.1638,-0.1674,-0.1651,0,0,0,0,0,0,0,0,0,0,-0.1622,-0.1604,-0.1591,-0.1591,-0.1608,-0.1638,-0.1638,-0.165,-0.1653,-0.1661,0,-0.1664,0,-0.1674,-0.1677,-0.1677,0,0,0,-0.1605,-0.1602,-0.1616,-0.1591,-0.1609,-0.1638,-0.1624,-0.1652,-0.1654,-0.1664,-0.1664,-0.1666,-0.1675,-0.1677,-0.1678,-0.1741,-0.1741,0,0,-0.1603,-0.1592,-0.1614,-0.1618,-0.1615,-0.1623,-0.1625,-0.1653,-0.1652,-0.1665,-0.1667,-0.1676,-0.1678,-0.1678,-0.174,-0.1741,0,0,0,-0.1601,-0.159,-0.1603,-0.1616,-0.1624,-0.1624,-0.1626,-0.165,-0.1656,-0.1668,-0.1676,-0.1678,-0.1678,-0.174,-0.174,-0.1761,0,0,0,-0.16,-0.1589,-0.1603,-0.1595,-0.1624,-0.1638,-0.1622,-0.1654,-0.1658,-0.1676,-0.1678,-0.1679,-0.1739,-0.174,-0.1759,-0.1764,0,0,0,-0.159,-0.1588,-0.1592,-0.1595,-0.1611,-0.1637,-0.1645,-0.1655,-0.1663,-0.1677,-0.1679,-0.1739,-0.174,-0.1758,-0.1762,-0.1781,0,0,0,-0.1576,-0.159,-0.1592,-0.1614,-0.161,-0.1654,-0.1644,-0.1672,-0.1686,-0.1678,-0.1739,-0.174,-0.1758,-0.1761,-0.178,-0.1712,-0.1713,0,0,-0.1589,-0.1591,-0.1607,-0.1611,-0.1653,-0.165,-0.1695,-0.1704,-0.1703,-0.1728,-0.173,-0.176,-0.1762,-0.1781,-0.1766,-0.1765,0,0,0,-0.161,-0.1617,-0.1632,-0.1655,-0.1685,-0.171,-0.1723,-0.1732,-0.1753,-0.1717,-0.1773,-0.1774,-0.1785,-0.1742,-0.1742,-0.1745,-0.1745,-0.1745,-0.1744,-0.1598,-0.1626,-0.1653,-0.1688,-0.1718,-0.1755,-0.1775,-0.1788,-0.1784,-0.1799,-0.1801,-0.1842,-0.1798,-0.1796,-0.1815,-0.1815,-0.1815,-0.1815,-0.1815,-0.1608,-0.1617,-0.166,-0.1694,-0.1734,-0.177,-0.1821,-0.1825,-0.1854,-0.1839,-0.1849,-0.1778,-0.1797,-0.1817,-0.1817,-0.1816,-0.1816,-0.1816,-0.1816,-0.1582,-0.159,-0.1618,-0.1667,-0.1717,-0.1771,-0.1816,-0.1853,-0.1869,-0.1882,-0.1834,-0.1833,-0.1846,-0.1888,-0.1888,-0.1888,-0.1889,-0.1889,-0.1889,-0.1532,-0.1566,-0.1577,-0.164,-0.1665,-0.1724,-0.1813,-0.1838,-0.1857,-0.1852,-0.1851,-0.1867,-0.1865,-0.1851,-0.189,-0.189,-0.189,-0.189,-0.189,-0.1479,-0.1498,-0.1511,-0.1532,-0.1598,-0.1614,-0.1731,-0.1778,-0.1823,-0.1811,-0.1834,-0.1835,-0.1821,-0.182,-0.1805,-0.1831,-0.1831,-0.1831,-0.1831,-0.1426,-0.1445,-0.1434,-0.1449,-0.1491,-0.1553,-0.1544,-0.1585,-0.1666,-0.1668,-0.1675,-0.1633,-0.1639,-0.1612,-0.1616,-0.1597,-0.1568,-0.1568,-0.1567,-0.1375,-0.1386,-0.135,-0.1383,-0.1426,-0.1456,-0.1396,-0.1356,-0.1419,-0.1555,-0.1615,-0.1816,-0.1771,-0.1774,-0.1747,-0.1748,-0.1721,0,0]},{"header":{"parameterUnit":"m.s-1","parameterCategory":2,"la1":30.2992,"la2":30.254,"lo1":-89.0895,"lo2":-89.0443,"dy":0.0025,"dx":0.0025,"nx":19,"ny":19,"refTime":"2026-03-27T03:00:00:Z","depth":"2","parameterNumber":3,"parameterNumberName":"V-component_of_CURRENTS"},"data":[0,0,0,-0.0286,-0.0286,-0.0251,-0.0251,-0.0189,-0.0188,0,0,0,0,0,0,0,0,0,0,0,-0.0298,-0.0298,-0.0286,-0.0286,-0.0251,-0.0251,-0.0189,-0.0188,0,0,0,0,0,0,0,0,0,0,0,-0.0298,-0.0298,-0.0298,-0.0286,-0.0251,-0.0251,-0.0189,-0.0218,0,0,0,0,0,0,0,0,0,0,-0.0253,-0.0271,-0.0298,-0.0298,-0.0286,-0.0252,-0.0251,-0.0219,-0.0216,-0.0202,0,-0.0202,0,-0.0197,-0.0185,-0.0184,0,0,0,-0.0278,-0.0274,-0.0264,-0.0298,-0.0285,-0.0252,-0.0265,-0.0218,-0.0214,-0.0197,-0.0201,-0.0198,-0.0196,-0.0184,-0.0184,-0.0151,-0.0151,0,0,-0.028,-0.0289,-0.0267,-0.0262,-0.0282,-0.0266,-0.0264,-0.0215,-0.0214,-0.02,-0.0197,-0.0195,-0.0184,-0.0183,-0.0151,-0.0151,0,0,0,-0.0291,-0.0291,-0.0282,-0.0264,-0.0261,-0.0265,-0.0263,-0.0216,-0.0213,-0.0196,-0.0194,-0.0183,-0.0183,-0.0151,-0.0151,-0.0209,0,0,0,-0.0291,-0.0298,-0.0283,-0.0288,-0.0262,-0.0241,-0.0264,-0.0217,-0.0211,-0.0194,-0.0183,-0.0182,-0.0151,-0.0151,-0.0207,-0.0232,0,0,0,-0.0298,-0.0298,-0.0296,-0.0289,-0.0278,-0.0242,-0.0236,-0.0215,-0.021,-0.0184,-0.0182,-0.0151,-0.0151,-0.0206,-0.0229,-0.0223,0,0,0,-0.0306,-0.0322,-0.0297,-0.0314,-0.0278,-0.0275,-0.0236,-0.0226,-0.0209,-0.0183,-0.0151,-0.0151,-0.0205,-0.0228,-0.0222,-0.0206,-0.0211,0,0,-0.0334,-0.0325,-0.0337,-0.0314,-0.0331,-0.0279,-0.0284,-0.0243,-0.0204,-0.0163,-0.0163,-0.0208,-0.0229,-0.0223,-0.0215,-0.022,0,0,0,-0.0352,-0.0363,-0.0362,-0.0365,-0.0347,-0.033,-0.0285,-0.0257,-0.0219,-0.0196,-0.0195,-0.0206,-0.02,-0.0187,-0.0191,-0.0152,-0.0151,-0.0151,-0.0151,-0.04,-0.0396,-0.0422,-0.0414,-0.0404,-0.0361,-0.0338,-0.0288,-0.025,-0.0239,-0.0244,-0.0267,-0.0254,-0.0256,-0.0232,-0.0232,-0.0233,-0.0233,-0.0233,-0.0459,-0.0481,-0.0469,-0.0492,-0.0464,-0.0455,-0.0389,-0.0354,-0.0305,-0.0277,-0.0268,-0.0238,-0.0264,-0.0237,-0.0236,-0.0236,-0.0235,-0.0235,-0.0235,-0.05,-0.0513,-0.0522,-0.0551,-0.0554,-0.0515,-0.0504,-0.0438,-0.0361,-0.0353,-0.0305,-0.0304,-0.0297,-0.0342,-0.0342,-0.0342,-0.0342,-0.0343,-0.0343,-0.054,-0.0551,-0.0593,-0.0613,-0.0633,-0.0633,-0.0567,-0.0523,-0.0426,-0.0361,-0.036,-0.0303,-0.0299,-0.0301,-0.0344,-0.0344,-0.0344,-0.0343,-0.0343,-0.0596,-0.0598,-0.0667,-0.0698,-0.0743,-0.0763,-0.0691,-0.0576,-0.05,-0.0445,-0.0348,-0.0348,-0.032,-0.0316,-0.0318,-0.0362,-0.0362,-0.0362,-0.0362,-0.0631,-0.0639,-0.0733,-0.0796,-0.0842,-0.0826,-0.0788,-0.0637,-0.0464,-0.0365,-0.0365,-0.0349,-0.0347,-0.032,-0.0315,-0.0316,-0.036,-0.036,-0.036,-0.0668,-0.0696,-0.0769,-0.0832,-0.089,-0.0888,-0.0847,-0.0656,-0.0402,-0.0361,-0.0376,-0.036,-0.0333,-0.0333,-0.0286,-0.0281,-0.028,0,0]}],[{"header":{"parameterUnit":"m.s-1","parameterCategory":2,"la1":30.2992,"la2":30.254,"lo1":-89.0895,"lo2":-89.0443,"dy":0.0025,"dx":0.0025,"nx":19,"ny":19,"refTime":"2026-03-27T03:00:00:Z","depth":"4","parameterNumber":2,"parameterNumberName":"U-component_of_CURRENTS"},"data":[0,0,0,-0.1242,-0.1245,-0.1344,-0.1344,-0.1425,-0.1425,0,0,0,0,0,0,0,0,0,0,0,-0.121,-0.1211,-0.1242,-0.1245,-0.1344,-0.1344,-0.1425,-0.1425,0,0,0,0,0,0,0,0,0,0,0,-0.121,-0.121,-0.1211,-0.1245,-0.1344,-0.1344,-0.1424,-0.1361,0,0,0,0,0,0,0,0,0,0,-0.1271,-0.1249,-0.121,-0.1211,-0.1246,-0.1344,-0.1344,-0.1359,-0.1365,-0.1366,0,-0.1386,0,-0.1406,-0.1429,-0.143,0,0,0,-0.1246,-0.1244,-0.1268,-0.1212,-0.1247,-0.1344,-0.1299,-0.1363,-0.137,-0.1374,-0.1388,-0.1391,-0.1407,-0.143,-0.143,-0.1507,-0.1507,0,0,-0.124,-0.1229,-0.1264,-0.1273,-0.1278,-0.1296,-0.1303,-0.1368,-0.1378,-0.1388,-0.1393,-0.1409,-0.143,-0.1431,-0.1506,-0.1507,0,0,0,-0.1224,-0.1225,-0.1249,-0.1269,-0.1291,-0.1299,-0.1306,-0.1375,-0.1383,-0.1394,-0.141,-0.1431,-0.1431,-0.1506,-0.1507,-0.1523,0,0,0,-0.1221,-0.1215,-0.1247,-0.1241,-0.129,-0.1341,-0.1312,-0.1378,-0.1387,-0.1409,-0.1431,-0.1432,-0.1506,-0.1506,-0.1522,-0.152,0,0,0,-0.1204,-0.1214,-0.1226,-0.124,-0.1282,-0.134,-0.1353,-0.1381,-0.1395,-0.143,-0.1432,-0.1505,-0.1506,-0.1521,-0.1518,-0.153,0,0,0,-0.1186,-0.121,-0.1226,-0.1263,-0.1281,-0.1347,-0.1353,-0.1408,-0.144,-0.1431,-0.1506,-0.1507,-0.152,-0.1517,-0.1529,-0.1347,0,0,0,-0.1203,-0.1212,-0.1234,-0.1251,-0.1307,-0.1333,-0.1395,-0.1439,-0.1451,-0.148,-0.1483,-0.1522,-0.1518,-0.153,-0.1401,0,0,0,0,-0.123,-0.1244,-0.1266,-0.1306,-0.1353,-0.1398,-0.1444,-0.1463,-0.1507,-0.1474,-0.1536,-0.1532,-0.1539,-0.1431,-0.1511,-0.1511,-0.1511,-0.1511,-0.151,-0.1222,-0.1254,-0.1292,-0.1338,-0.1383,-0.1449,-0.1484,-0.1517,-0.153,-0.1553,-0.1556,-0.1589,-0.1477,-0.1573,-0.1573,-0.1573,-0.1573,-0.1573,-0.1573,-0.1229,-0.124,-0.1299,-0.1348,-0.1405,-0.1461,-0.1525,-0.1546,-0.1586,-0.1587,-0.1593,-0.1469,-0.1575,-0.1575,-0.1574,-0.1574,-0.1574,-0.1574,-0.1574,-0.1197,-0.1205,-0.1254,-0.1323,-0.1393,-0.1466,-0.1505,-0.1564,-0.1596,-0.161,-0.1498,-0.16,-0.1586,-0.162,-0.162,-0.162,-0.162,-0.162,-0.162,-0.1131,-0.1179,-0.121,-0.1295,-0.1336,-0.1403,-0.15,-0.1516,-0.1571,-0.1493,-0.1618,-0.1605,-0.1603,-0.1589,-0.1621,-0.1621,-0.1621,-0.1621,-0.1621,-0.1066,-0.1101,-0.1131,-0.1172,-0.1253,-0.1287,-0.1412,-0.1412,-0.1417,-0.1379,-0.1427,-0.1437,-0.1411,-0.1414,-0.1393,-0.1367,-0.1365,-0.1363,0,-0.1007,-0.1032,-0.105,-0.1077,-0.11,-0.1201,-0.1168,-0.1217,-0.1265,-0.1225,-0.141,-0.1464,-0.1469,-0.1441,-0.144,-0.1414,0,0,0,-0.0956,-0.0972,-0.0954,-0.0998,-0.1015,-0.1049,-0.1147,-0.1116,-0.127,-0.122,-0.1307,-0.1321,-0.1503,-0.1624,-0.1607,-0.1605,-0.1582,0,0]},{"header":{"parameterUnit":"m.s-1","parameterCategory":2,"la1":30.2992,"la2":30.254,"lo1":-89.0895,"lo2":-89.0443,"dy":0.0025,"dx":0.0025,"nx":19,"ny":19,"refTime":"2026-03-27T03:00:00:Z","depth":"4","parameterNumber":3,"parameterNumberName":"V-component_of_CURRENTS"},"data":[0,0,0,-0.0161,-0.0161,-0.0144,-0.0144,-0.0105,-0.0105,0,0,0,0,0,0,0,0,0,0,0,-0.0167,-0.0167,-0.0161,-0.0161,-0.0144,-0.0144,-0.0105,-0.0105,0,0,0,0,0,0,0,0,0,0,0,-0.0167,-0.0167,-0.0167,-0.0161,-0.0144,-0.0144,-0.0105,-0.0121,0,0,0,0,0,0,0,0,0,0,-0.0139,-0.0151,-0.0167,-0.0167,-0.0161,-0.0144,-0.0144,-0.0122,-0.012,-0.011,0,-0.0112,0,-0.011,-0.0102,-0.0102,0,0,0,-0.0155,-0.0153,-0.0147,-0.0167,-0.0161,-0.0144,-0.015,-0.0121,-0.0119,-0.0107,-0.0112,-0.011,-0.0109,-0.0102,-0.0102,-0.0098,-0.0098,0,0,-0.0156,-0.0163,-0.0149,-0.0146,-0.0163,-0.0151,-0.015,-0.012,-0.012,-0.0112,-0.0109,-0.0109,-0.0102,-0.0102,-0.0098,-0.0098,0,0,0,-0.0163,-0.0164,-0.0159,-0.0148,-0.0147,-0.015,-0.0149,-0.0122,-0.012,-0.0109,-0.0108,-0.0102,-0.0101,-0.0098,-0.0098,-0.0154,0,0,0,-0.0163,-0.0168,-0.016,-0.0164,-0.0148,-0.0137,-0.0152,-0.0122,-0.0119,-0.0108,-0.0102,-0.0101,-0.0097,-0.0098,-0.0151,-0.0175,0,0,0,-0.0167,-0.0169,-0.0168,-0.0164,-0.016,-0.0138,-0.0134,-0.0121,-0.0118,-0.0102,-0.0101,-0.0097,-0.0098,-0.015,-0.0172,-0.0174,0,0,0,-0.0172,-0.0188,-0.0169,-0.0189,-0.016,-0.0169,-0.0135,-0.0134,-0.0125,-0.0102,-0.0097,-0.0098,-0.0149,-0.017,-0.0173,-0.018,0,0,0,-0.0197,-0.0191,-0.0204,-0.0187,-0.0211,-0.0171,-0.019,-0.016,-0.0128,-0.0104,-0.0104,-0.0152,-0.0171,-0.0174,-0.0211,0,0,0,0,-0.0216,-0.0227,-0.0231,-0.024,-0.0233,-0.0231,-0.0199,-0.0181,-0.016,-0.0126,-0.0148,-0.0158,-0.0158,-0.0157,-0.01,-0.01,-0.01,-0.01,-0.01,-0.0257,-0.0259,-0.0289,-0.0291,-0.0293,-0.0271,-0.0262,-0.023,-0.0196,-0.0195,-0.02,-0.0236,-0.0238,-0.0195,-0.0196,-0.0196,-0.0196,-0.0196,-0.0197,-0.0308,-0.033,-0.0334,-0.0364,-0.0355,-0.0362,-0.0324,-0.0298,-0.0272,-0.0243,-0.024,-0.0212,-0.0202,-0.0201,-0.02,-0.0199,-0.0199,-0.0199,-0.0198,-0.0338,-0.0351,-0.037,-0.0413,-0.0436,-0.042,-0.0427,-0.0383,-0.0324,-0.0324,-0.0298,-0.0264,-0.0262,-0.0317,-0.0317,-0.0317,-0.0317,-0.0318,-0.0318,-0.0359,-0.038,-0.0428,-0.0466,-0.0497,-0.0516,-0.0485,-0.0458,-0.0397,-0.0359,-0.0335,-0.0276,-0.0272,-0.0268,-0.032,-0.0319,-0.0319,-0.0319,-0.0319,-0.0396,-0.0405,-0.0478,-0.052,-0.0589,-0.0597,-0.0572,-0.0497,-0.0466,-0.0421,-0.0365,-0.0362,-0.0336,-0.0331,-0.0327,-0.0399,-0.0399,-0.0399,0,-0.0415,-0.0427,-0.0526,-0.0599,-0.0653,-0.0646,-0.0611,-0.0563,-0.0473,-0.0467,-0.0467,-0.0408,-0.0404,-0.0378,-0.0373,-0.0372,0,0,0,-0.044,-0.0469,-0.0542,-0.0618,-0.0681,-0.0634,-0.0599,-0.0565,-0.049,-0.045,-0.0407,-0.0405,-0.0384,-0.0326,-0.0279,-0.0274,-0.0264,0,0]}]]